Tracking 19562 objects as of 24-Mar-2019
HD Live streaming from Space Station
objects crossing your sky now

ROBUSTA 1B

Track ROBUSTA 1B now!
10-day predictions
ROBUSTA 1B is classified as:


NORAD ID: 42792
Int'l Code: 2017-036AD
Perigee: 496.8 km
Apogee: 512.7 km
Inclination: 97.4 °
Period: 94.6 minutes
Semi major axis: 6875 km
RCS: Unknown
Launch date: June 23, 2017
Source: France (FR)
Launch site: SRIHARIKOTA (SRI)

Uplink (MHz):
Downlink (MHz): 437.325
Beacon (MHz): 437.325
Mode: 1200bps AFSK CW
Call sign: FX6FR
Status: Active

aabbcc
Your satellite tracking list
Your tracking list is empty




NASA's NSSDC Master Catalog

Two Line Element Set (TLE):
1 42792U 17036AD  19082.91157124 +.00001033 +00000-0 +47223-4 0  9990
2 42792 097.3624 142.9135 0011552 167.2504 192.9027 15.22731130097080
Source of the keplerian elements: AMSAT